QPF
0.00 0.00 0.00 0.00 0.00 0.00 0.00 0.00 0.00 0.00 0.00 0.00 0.01 0.02 0.01 0.02 0.02 0.03 0.05 0.07 0.07 0.07
0.00 0.00 0.00 0.00 0.00 0.00 0.00 0.00 0.00 0.00 0.00 0.00 0.01 0.01 0.02 0.02 0.03 0.03 0.05 0.06 0.07 0.05
0.00 0.00 0.00 0.00 0.00 0.00 0.00 0.00 0.00 0.00 0.00 0.00 0.01 0.01 0.01 0.03 0.04 0.05 0.05 0.04 0.04 0.05
0.00 0.00 0.00 0.00 0.00 0.00 0.00 0.00 0.00 0.00 0.00 0.00 0.01 0.01 0.01 0.03 0.03 0.05 0.05 0.04 0.04 0.04
0.00 0.00 0.00 0.00 0.00 0.00 0.00 0.00 0.00 0.00 0.00 0.02 0.02 0.02 0.01 0.01 0.01 0.01 0.02 0.02 0.01 0.01
0.00 0.00 0.00 0.00 0.00 0.00 0.00 0.00 0.01 0.01 0.01 0.03 0.03 0.03 0.02 0.02 0.01 0.01 0.01 0.00 0.01 0.01
0.00 0.00 0.00 0.00 0.00 0.00 0.00 0.00 0.00 0.01 0.00 0.01 0.01 0.01 0.01 0.01 0.01 0.01 0.00 0.00 0.01 0.01
0.00 0.00 0.00 0.00 0.00 0.00 0.00 0.00 0.00 0.00 0.01 0.01 0.01 0.01 0.02 0.01 0.00 0.01 0.01 0.01 0.01 0.02
0.00 0.00 0.00 0.00 0.00 0.00 0.00 0.00 0.00 0.00 0.00 0.01 0.01 0.03 0.02 0.01 0.00 0.01 0.01 0.01 0.01 0.06
0.00 0.00 0.00 0.00 0.00 0.00 0.00 0.00 0.00 0.00 0.01 0.03 0.08 0.09 0.04 0.07 0.05 0.03 0.02 0.02 0.01 0.02
0.00 0.00 0.00 0.00 0.00 0.00 0.00 0.04 0.21 0.09 0.12 0.15 0.12 0.11 0.11 0.07 0.11 0.11 0.06 0.03 0.01 0.00
0.00 0.00 0.00 0.00 0.00 0.00 0.02 0.02 0.03 0.06 0.13 0.13 0.10 0.07 0.06 0.05 0.04 0.05 0.04 0.01 0.00 0.00
0.00 0.00 0.00 0.00 0.00 0.00 0.01 0.01 0.02 0.04 0.07 0.05 0.05 0.06 0.04 0.02 0.01 0.00 0.00 0.00 0.00 0.00
0.00 0.00 0.00 0.00 0.00 0.00 0.00 0.00 0.01 0.01 0.02 0.01 0.01 0.00 0.00 0.00 0.00 0.00 0.00 0.00 0.00 0.00
MSLP
1010.30 1010.11 1009.90 1009.63 1009.43 1009.14 1008.96 1008.91 1009.01 1009.84 1010.44 1010.74 1010.91 1011.08 1011.35 1011.51 1011.66 1012.15 1012.57 1013.08 1013.45 1013.90
1010.28 1010.15 1010.01 1009.84 1009.64 1009.46 1009.21 1009.04 1008.96 1009.09 1009.72 1010.22 1010.68 1010.86 1011.07 1011.12 1011.27 1011.77 1012.20 1012.87 1013.54 1014.23
1010.74 1010.55 1010.38 1010.20 1010.06 1009.92 1009.75 1009.55 1009.39 1009.27 1009.48 1009.67 1010.11 1010.50 1011.00 1011.13 1011.27 1011.62 1012.12 1012.53 1013.22 1014.28
1011.14 1010.87 1010.60 1010.41 1010.45 1010.50 1010.55 1010.50 1010.33 1010.17 1010.15 1010.15 1010.31 1010.49 1011.10 1011.56 1011.70 1011.88 1012.40 1012.95 1013.54 1014.50
1011.55 1011.29 1010.97 1010.89 1010.98 1011.01 1011.06 1011.09 1010.92 1010.71 1010.70 1010.60 1010.76 1010.46 1011.36 1012.36 1012.62 1012.47 1013.19 1013.64 1014.19 1014.95
1012.22 1012.01 1011.95 1011.92 1011.68 1011.63 1011.62 1011.79 1011.73 1011.34 1011.29 1011.52 1011.54 1010.60 1011.30 1012.87 1013.90 1013.78 1013.89 1014.25 1014.62 1015.29
1013.11 1013.06 1012.90 1012.83 1012.56 1012.39 1012.53 1012.63 1012.68 1012.53 1012.43 1012.03 1012.03 1012.14 1011.55 1013.57 1014.20 1014.77 1014.89 1014.94 1015.26 1015.62
1014.02 1013.95 1013.82 1013.57 1013.60 1013.67 1013.62 1013.70 1013.74 1013.51 1013.36 1013.36 1012.89 1013.21 1013.25 1014.02 1014.88 1015.35 1015.76 1015.88 1015.98 1016.31
1014.59 1014.43 1014.45 1014.62 1014.84 1014.68 1014.50 1014.42 1014.37 1014.33 1014.21 1014.27 1013.76 1014.17 1014.85 1015.33 1015.74 1015.81 1016.28 1016.81 1016.80 1016.99
1015.23 1015.26 1015.42 1015.69 1015.72 1015.60 1015.52 1015.47 1015.36 1015.17 1014.98 1014.71 1014.99 1015.48 1015.94 1016.61 1016.85 1016.92 1017.28 1017.50 1017.62 1017.75
1016.25 1016.22 1016.48 1016.59 1016.46 1016.44 1016.45 1016.43 1016.45 1016.41 1016.44 1015.92 1016.45 1016.91 1017.02 1017.36 1017.74 1017.95 1018.05 1018.22 1018.22 1018.09
1017.09 1017.01 1017.26 1017.24 1017.22 1017.28 1017.23 1017.20 1017.36 1017.54 1017.37 1017.43 1017.94 1017.93 1017.83 1018.17 1018.43 1018.67 1018.69 1018.54 1018.45 1018.39
1017.55 1017.61 1017.75 1017.85 1017.84 1017.89 1017.84 1017.86 1018.13 1018.30 1018.39 1018.47 1018.53 1018.55 1018.65 1018.59 1018.37 1018.46 1018.37 1018.47 1018.65 1018.71
1017.93 1018.05 1018.29 1018.32 1018.38 1018.45 1018.53 1018.67 1018.68 1018.58 1018.56 1018.57 1018.61 1018.68 1018.70 1018.56 1018.36 1018.39 1018.53 1018.64 1018.70 1018.84
Thickness
5639 5639 5639 5638 5637 5637 5636 5635 5634 5624 5615 5611 5608 5605 5602 5602 5604 5601 5599 5596 5596 5595
5630 5629 5627 5626 5625 5623 5622 5620 5618 5614 5605 5597 5591 5588 5586 5588 5590 5588 5587 5584 5580 5577
5615 5615 5613 5612 5609 5606 5603 5599 5595 5591 5585 5580 5575 5570 5566 5567 5569 5570 5571 5571 5568 5562
5602 5601 5601 5600 5595 5589 5581 5573 5564 5558 5554 5551 5547 5546 5544 5543 5545 5549 5551 5550 5550 5544
5590 5590 5589 5586 5581 5573 5562 5550 5543 5539 5533 5530 5526 5529 5522 5517 5518 5525 5526 5529 5529 5526
5576 5575 5573 5569 5564 5555 5545 5533 5523 5520 5513 5505 5502 5510 5507 5497 5491 5497 5504 5509 5512 5511
5561 5558 5556 5551 5546 5540 5527 5516 5505 5498 5489 5488 5486 5485 5492 5480 5479 5476 5483 5490 5495 5497
5546 5542 5539 5536 5530 5522 5511 5500 5492 5484 5476 5471 5472 5470 5473 5470 5467 5466 5467 5473 5478 5480
5533 5531 5528 5522 5514 5507 5501 5492 5483 5475 5468 5462 5463 5459 5455 5455 5454 5458 5457 5458 5463 5467
5523 5519 5514 5507 5500 5495 5488 5482 5474 5466 5463 5460 5454 5449 5445 5441 5440 5445 5445 5447 5450 5453
5509 5505 5500 5494 5490 5484 5478 5471 5464 5458 5452 5450 5443 5438 5435 5433 5432 5433 5436 5437 5441 5443
5496 5494 5488 5484 5479 5474 5469 5464 5458 5450 5446 5441 5433 5431 5431 5428 5427 5428 5428 5432 5433 5434
5488 5485 5480 5476 5472 5467 5462 5457 5449 5443 5438 5433 5430 5428 5426 5426 5428 5429 5429 5429 5427 5426
5481 5478 5472 5468 5463 5459 5453 5448 5444 5441 5437 5435 5432 5430 5428 5427 5428 5428 5426 5424 5422 5419